User: anonymous   Login
Location: Unspecified
(0.0000°N, 0.0000°E)
Time: 15:19:25
(UTC+00:00)
Language:

Safir 2 - Orbit

View from above orbital plane
View from above orbital plane
View from above satellite
View from above satellite

Ground track
Ground track

The orbit data is extracted from the following two-line orbital elements,

1 25399U 98043F   18231.81646366 -.00000012  00000-0  13366-4 0  9994
2 25399  98.6194 172.0229 0002893 101.2603 258.8902 14.24619545 45290
Epoch (UTC): 19 August 2018 19:35:42
Eccentricity: 0.0002893
inclination: 98.6194°
perigee height: 807 km
apogee height: 812 km
right ascension of ascending node: 172.0229°
argument of perigee: 101.2603°
revolutions per day: 14.24619545
mean anomaly at epoch: 258.8902°
orbit number at epoch: 4529

The dashed part of the orbit path shows where the satellite is in the earth's shadow,  

DLR